CZ-3C DEB, 44526

Orbit data source: Space-Track

CZ-3C DEB, 44526 is space debris in HEO originally from a launch on Sun, 31 Oct 2010 UTC launched from the Xichang Space Center, China (XSC). Debris objects in space refer to the collection of defunct objects orbiting the Earth. Examples of debris include non-operational satellites, rocket bodies, and fragments generated from explosions, collisions, or faulty payload assembly.

Loading next visibility...
Identifier
44526, 2010-057BL
Orbit
HEO
Last TLE update
5 days ago
Origin
Manufacturer
CALT
Mission
Spacecraft
Bus & Motor
Unknown
Mass
Unknown
Launch date (UTC)
2010-10-31 (15 years ago)
Launch vehicle
Unknown
Launch site
Xichang Space Center, China (XSC)
Object type
Payload
Rocket body
Debris
Shape & HBR
Unknown
Radar Cross Section
Medium (>0.1 m² and <1 m²)

Expand to show TLE details & history

TLE from 5 days ago
0 CZ-3C DEB
1 44526U 10057BL  25177.39584216  .00000243  00000-0  17061-2 0  9990
2 44526  21.3062 231.7501 7013379  67.8554 349.4694  2.49073894 87382
Epoch: 2025-06-26T09:30Z
TLE epoch observation values (Epoch: 2025-06-26T09:30:00.762Z)
Latitude
-0.00012°
Longitude
174.60291°
Altitude
2,826.851 km
Speed
8.322 km/s
True Right ascension
15h 27m 28s
True Declination
0° 00' 00"
Sunlit
Object was in daylight at epoch
Visualization orbit readout
Latitude
-12.09613°
Longitude
25.80693°
Altitude
20,524.131 km
Speed
3.506 km/s
Apparent Right ascension
05h 43m 52s
Apparent Declination
-17° 22' 51"
Sunlit
Object is in daylight
Visualization observer readout
Local Sidereal Time
18:46:46
Azimuth
35.672° NE
Elevation
-63.669°
Doppler factor
1
Orbital elements
Apogee altitude
32,740.827 km
Perigee altitude
489.019 km
Semi-major axis
22,993.06 km
Eccentricity
0.70134
Inclination
21.3062°
RAAN
231.7501°
Arg. of periapsis
67.8554°
True anomaly
Unknown
Mean anomaly
349.4694°
Eccentric anomaly
Unknown
Mean motion
0.62251 °/min
Orbital period
578.3 mins
BSTAR
0.0017061
Loading maneuver chart data...
Loading SW <> Apogee altitude chart data...
Loading historical data...
Loading historical data...
Loading historical data...
Loading historical data...
Loading historical data...
Loading historical data...
Loading historical data...

CZ-3C DEB Visibility forecast

Observer location: undefined°, undefined°

Span
Click to sort rows by Start time (UTC) header in descending order
Start Az.
Max El. time (UTC)
Max El. Az.
Max El.
End time (UTC)
End Az.
517 mins2025-07-01 15:20:51.761Z232.515° WSW2025-07-01 15:42:51.761Z181.991° SSW25.163°2025-07-01 23:57:51.761Z158.491° S
|